CZ-2D DEB, 44610

Orbit data source: Space-Track

CZ-2D DEB, 44610 is space debris in SSO originally from a launch on Mon, 09 Oct 2017 UTC launched from the Jiuquan Satellite Launch Center, China (JSC). Debris objects in space refer to the collection of defunct objects orbiting the Earth. Examples of debris include non-operational satellites, rocket bodies, and fragments generated from explosions, collisions, or faulty payload assembly.

Loading next visibility...
Identifier
44610, 2017-060C
Orbit
SSO
Country
Flag of CNCN / PRC
Related business
Manufacturer
Unknown
Mission
Spacecraft
Bus & Motor
Unknown
Mass
Unknown
Launch date (UTC)
2017-10-09 (8 years ago)
Launch vehicle
Unknown
Launch site
Jiuquan Satellite Launch Center, China (JSC)
Object type
Payload
Rocket body
Debris
Shape & HBR
Unknown shape, 0.1 m
Radar Cross Section
Small (<0.1 m²)

Expand to show TLE details & history
Last TLE update: 1 day ago

TLE from 1 day ago
0 CZ-2D DEB
1 44610U 17060C   26036.52973277  .00013929  00000-0  92830-3 0  9997
2 44610  98.2448 233.6438 0017652 174.5041 185.6382 15.07089810449407
Epoch: 2026-02-05T12:42Z
TLE epoch observation values (Epoch: 2026-02-05T12:42:48.911Z)
Latitude
0.00002°
Longitude
-92.74064°
Altitude
560.31 km
Speed
7.575 km/s
True Right ascension
15h 34m 34s
True Declination
0° 00' 00"
Sunlit
Object was in daylight at epoch
Visualization orbit readout
Latitude
Unknown
Longitude
Unknown
Altitude
Unknown
Speed
Unknown
Apparent Right ascension
Unknown
Apparent Declination
Unknown
Sunlit
N/A
Visualization observer readout
Local Sidereal Time
22:42:27
Azimuth
Unknown
Elevation
Unknown
Doppler factor
Unknown
Orbital elements
Apogee altitude
554.335 km
Perigee altitude
529.903 km
Semi-major axis
6,920.256 km
Eccentricity
0.00177
Inclination
98.2448°
RAAN
233.6438°
Arg. of periapsis
174.5041°
True anomaly
185.61837°
Mean anomaly
185.6382°
Eccentric anomaly
185.62828°
Mean motion
3.77016 °/min
Orbital period
95.49 mins
BSTAR
0.0009283
Loading maneuver chart data...
Computing Atmospheric mass density...
Loading historical data...
Loading historical data...
Loading historical data...
Loading historical data...
Loading historical data...
Loading historical data...
Loading historical data...
Other satellites on launch #60 in the year 2017 (2017-10-09 UTC)

Documentation

Showing up to 5 results
|